This is the latest recevied weather packets stored in our database for station/object KI6SYE. If no packets are shown the sender has not sent any weather packets the latest 10 day(s).
| Time | Temp. | Humidity | Pressure | Rain* | Wind** | Luminosity | Snow |
|---|---|---|---|---|---|---|---|
| 1777842745 | 17.78° C | 69% | 1013.8 hPa | 0 mm | - | 395 W/m² | - |
| 1777842441 | 17.78° C | 69% | 1014 hPa | 0 mm | - | 368 W/m² | - |
| 1777842139 | 17.78° C | 68% | 1013.7 hPa | 0 mm | - | 364 W/m² | - |
| 1777841834 | 17.78° C | 70% | 1013.8 hPa | 0 mm | - | 494 W/m² | - |
| 1777841531 | 17.78° C | 73% | 1014 hPa | 0 mm | - | 463 W/m² | - |
| 1777841227 | 17.78° C | 73% | 1014 hPa | 0 mm | - | 395 W/m² | - |
| 1777840925 | 18.33° C | 71% | 1014 hPa | 0 mm | - | 395 W/m² | - |
| 1777840622 | 17.78° C | 72% | 1014 hPa | 0 mm | - | 418 W/m² | - |
| 1777840319 | 17.78° C | 70% | 1014.2 hPa | 0 mm | - | 497 W/m² | - |
| 1777840016 | 18.33° C | 70% | 1014 hPa | 0 mm | - | 463 W/m² | - |
| 1777839714 | 17.78° C | 72% | 1014 hPa | 0 mm | - | 498 W/m² | - |
| 1777839412 | 17.78° C | 71% | 1014 hPa | 0 mm | - | 631 W/m² | - |
| 1777839109 | 17.78° C | 72% | 1014 hPa | 0 mm | - | 555 W/m² | - |
| 1777838805 | 17.78° C | 71% | 1014.2 hPa | 0 mm | - | 571 W/m² | - |
| 1777838501 | 17.78° C | 73% | 1014.2 hPa | 0 mm | - | 550 W/m² | - |
| 1777838198 | 17.78° C | 72% | 1014.3 hPa | 0 mm | - | 485 W/m² | - |
| 1777837895 | 17.78° C | 71% | 1014.2 hPa | 0 mm | - | 435 W/m² | - |
| 1777837592 | 17.78° C | 70% | 1014.2 hPa | 0 mm | - | 425 W/m² | - |
| 1777837287 | 17.78° C | 71% | 1014.4 hPa | 0 mm | - | 432 W/m² | - |
| 1777836985 | 17.78° C | 71% | 1014.3 hPa | 0 mm | - | 460 W/m² | - |
| 1777836680 | 17.78° C | 71% | 1014.2 hPa | 0 mm | - | 447 W/m² | - |
| 1777836376 | 18.33° C | 69% | 1014.5 hPa | 0 mm | - | 467 W/m² | - |
| 1777836072 | 18.33° C | 70% | 1014.5 hPa | 0 mm | - | 461 W/m² | - |
| 1777835769 | 17.22° C | 71% | 1014.6 hPa | 0 mm | - | 513 W/m² | - |
| 1777835466 | 17.78° C | 70% | 1014.6 hPa | 0 mm | - | 505 W/m² | - |
* Rain latest hour (hover to see other rain measurements)
** Current wind speed in m/s (hover to see current wind gust speed)